Regional Weather Roundup
Issued by NWS

Home | Current Version | Previous Version | Text Only | Print | Product List | Glossary Off
Versions: 1 2 3 4 5 6 7 8 9 10 11 12 13 14 15 16 17 18 19 20 21 22 23 24 25 26 27 28 29 30 31 32 33 34 35 36 37 38 39 40 41 42 43 44 45 46 47 48 49 50

000
ASUS43 KOAX 190102
RWRNE

WEATHER ROUNDUP FOR NEBRASKA
NATIONAL WEATHER SERVICE OMAHA NE
800 PM CDT FRI AUG 18 2017

NOTES: SATELLITE DATA IS BEING USED TO AUGMENT CLOUD COVER ABOVE
       12000 FEET.
       "FAIR" INDICATES FEW OR NO CLOUDS BELOW 12,000 FEET WITH NO
       SIGNIFICANT WEATHER AND/OR OBSTRUCTIONS TO VISIBILITY.


NEZ001>004-019>022-054>056-190200-
NEBRASKA PANHANDLE

CITY           SKY/WX    TMP DP  RH WIND       PRES   REMARKS
SCOTTSBLUFF    CLEAR     82  48  30 SE9       30.03F
ALLIANCE       CLEAR     78  57  48 S6        30.02F
CHADRON        CLEAR     80  54  40 E7        29.97S
GORDON         FAIR      78  54  42 E5        30.02S
KIMBALL        CLEAR     80  48  33 SE8       30.11S
SIDNEY         CLEAR     82  44  26 S8        30.08F
$$

NEZ057>060-069>072-079>082-190200-
SOUTHWEST NEBRASKA

CITY           SKY/WX    TMP DP  RH WIND       PRES   REMARKS
NORTH PLATTE   CLEAR     81  65  58 CALM      29.99S
IMPERIAL       CLEAR     83  48  29 SE3       30.04S
LEXINGTON      CLEAR     80  67  62 S5        29.97S
MCCOOK         CLEAR     83  56  39 S3        30.00R
OGALLALA       CLEAR     81  55  40 CALM      30.03S
$$

NEZ005>010-023>029-035>040-094-190200-
NORTH CENTRAL NEBRASKA

CITY           SKY/WX    TMP DP  RH WIND       PRES   REMARKS
VALENTINE      CLEAR     79  53  40 E9        29.99S
AINSWORTH      CLEAR     73  62  67 E3        30.01S
BROKEN BOW     CLEAR     81  60  48 NE7       29.98R
O`NEILL        CLEAR     74  64  69 N5        29.98S
ORD            CLEAR     77  57  50 N6        29.96R
THEDFORD       CLEAR     78  57  48 E5        30.01S
$$

NEZ041-046>049-061>064-073>077-083>087-190200-
SOUTH CENTRAL NEBRASKA

CITY           SKY/WX    TMP DP  RH WIND       PRES   REMARKS
GRAND ISLAND   CLEAR     80  65  59 S8        29.95R
AURORA         CLEAR     78  67  69 S5        29.94R
HASTINGS       CLEAR     81  63  54 S5        29.97R
HEBRON         CLEAR     79  68  69 CALM      29.93S
HOLDREGE       CLEAR     78  64  60 S5        29.98S
KEARNEY        CLEAR     77  68  73 S7        29.97R
YORK           CLEAR     75  70  83 CALM      29.93S
$$

NEZ011>018-030>034-042>045-190200-
NORTHEAST NEBRASKA

CITY           SKY/WX    TMP DP  RH WIND       PRES   REMARKS
NORFOLK        CLEAR     76  64  66 NW7       29.92R
ALBION         CLEAR     79  64  59 N5        29.96R
BLAIR          CLEAR     78  69  73 SW5       29.91S
COLUMBUS       CLEAR     80  67  64 SW3       29.93R
FREMONT        CLEAR     78  67  68 SW5       29.91S
TEKAMAH        CLEAR     77  72  84 S3        29.88S
WAYNE          CLEAR     74  69  81 NW6       29.92R
$$

NEZ050>053-065>068-078-088>093-190200-
SOUTHEAST NEBRASKA

CITY           SKY/WX    TMP DP  RH WIND       PRES   REMARKS
LINCOLN        CLEAR     82  66  58 W5        29.92S
OMAHA EPPLEY   PTCLDY    83  64  52 W5        29.89R
BEATRICE       CLEAR     82  69  65 CALM      29.92S
FALLS CITY     CLEAR     81  66  60 CALM      29.90R
NEBRASKA CITY  CLEAR     79  70  75 CALM      29.91R
PLATTSMOUTH    CLEAR     79  67  66 W3        29.90F
$$

NEZ044-045-051>053-067-190200-
OMAHA AREA

CITY           SKY/WX    TMP DP  RH WIND       PRES   REMARKS
OMAHA EPPLEY   PTCLDY    83  64  52 W5        29.89R
BLAIR          CLEAR     78  69  73 SW5       29.91S
FREMONT        CLEAR     78  67  68 SW5       29.91S
MILLARD        CLEAR     83  67  58 CALM      29.90S
OFFUTT AFB     CLEAR     82  65  56 W6        29.89R
PLATTSMOUTH    CLEAR     79  67  66 W3        29.90F
WAHOO          FAIR      78  68  71 CALM      29.91S
$$



USA.gov is the U.S. government's official web portal to all federal, state and local government web resources and services.